Regional Weather Roundup
Issued by NWS

Home | Current Version | Previous Version | Graphics & Text | Print | Product List | Glossary On
Versions: 1 2 3 4 5 6 7 8 9 10 11 12 13 14 15 16 17 18 19 20 21 22 23 24 25 26 27 28 29 30 31 32 33 34 35 36 37 38 39 40 41 42 43 44 45 46 47 48 49 50
836
ASUS44 KJAN 311203
RWRMS

MISSISSIPPI HOURLY WEATHER ROUNDUP
NATIONAL WEATHER SERVICE JACKSON MS
700 AM CDT THU JUL 31 2014

NOTE: "FAIR: INDICATES FEW OR NO CLOUDS BELOW 12,000 FEET WITH NO
SIGNIFICANT WEATHER AND/OR OBSTRUCTIONS TO VISIBILITY.

MSZ001>002-007>008-010>013-018>021-025>028-034>036-311300-
NORTHWEST MISSISSIPPI

CITY           SKY/WX    TMP DP  RH WIND       PRES   REMARKS
CLEVELAND      DRIZZLE   69  69 100 N3        30.08S
GREENWOOD      CLOUDY    70  66  87 N3        30.07S
6HR MIN TEMP:  69; 6HR MAX TEMP:  72;

GREENVILLE     LGT RAIN  70  67  90 CALM      30.09R FOG
6HR MIN TEMP:  70; 6HR MAX TEMP:  72; 6HR PCP:  0.01;

GRENADA        CLOUDY    68  64  88 N5        30.08S
OXFORD         FAIR      66  64  94 CALM      30.10S
TUNICA         DRIZZLE   68  64  88 W6        30.10S
$$

MSZ003>006-009-014>017-022>024-029>033-037>039-311300-
NORTHEAST MISSISSIPPI

CITY           SKY/WX    TMP DP  RH WIND       PRES   REMARKS
BELMONT        CLOUDY    66  64  93 CALM      30.08S
COLUMBUS AFB   CLOUDY    68  64  87 N1        30.06R
6HR MIN TEMP:  68; 6HR MAX TEMP:  69;

CORINTH        CLOUDY    66  64  94 CALM      30.09R
GOLDN TRIANGLE CLOUDY    68  63  83 N6        30.06S
STARKVILLE     CLOUDY    68  64  88 CALM      30.06S
TUPELO         CLOUDY    69  64  84 N3        30.07R
6HR MIN TEMP:  69; 6HR MAX TEMP:  72;

$$

MSZ040-058-311300-
CENTRAL MISSISSIPPI

CITY           SKY/WX    TMP DP  RH WIND       PRES   REMARKS
JACKSON INTL   CLOUDY    71  63  75 CALM      30.07R
6HR MIN TEMP:  69; 6HR MAX TEMP:  72;

JACKSON HAWKNS CLOUDY    72  62  71 CALM      30.07R
6HR MIN TEMP:  71; 6HR MAX TEMP:  74;

MERIDIAN KEY   CLOUDY    68  61  78 CALM      30.05R
6HR MIN TEMP:  64; 6HR MAX TEMP:  68; 6HR PCP:  0.02;

MERIDIAN NAS   MOCLDY    67  63  87 CALM      30.06R
6HR MIN TEMP:  65; 6HR MAX TEMP:  68;

RAYMOND        FAIR      68  63  83 CALM      30.07R
VICKSBURG      LGT RAIN  70  66  87 NW3       30.08R
6HR MIN TEMP:  69; 6HR MAX TEMP:  74; 6HR PCP: TRACE;

$$

MSZ059>079-311300-
SOUTH MISSISSIPPI

CITY           SKY/WX    TMP DP  RH WIND       PRES   REMARKS
BROOKHAVEN     FAIR      68  64  88 CALM      30.08R
COLUMBIA       FAIR      66  64  94 CALM      30.04R
HATTIESBURG    MOCLDY    68  64  87 CALM      30.05R
6HR MIN TEMP:  64; 6HR MAX TEMP:  68;

MCCOMB         CLOUDY    71  59  65 CALM      30.06R
6HR MIN TEMP:  68; 6HR MAX TEMP:  72;

NATCHEZ        CLOUDY    70  63  78 CALM      30.07R
6HR MIN TEMP:  70; 6HR MAX TEMP:  72;

PINE BELT      MOCLDY    64  61  88 CALM      30.05S
6HR MIN TEMP:  63; 6HR MAX TEMP:  66;

$$

MSZ080>082-311300-
COASTAL MISSISSIPPI

CITY           SKY/WX    TMP DP  RH WIND       PRES   REMARKS
BAY ST LOUIS   CLEAR    N/A N/A N/A CALM      30.03
BILOXI         CLEAR     69  61  77 NE7       30.02S
6HR MIN TEMP:  68; 6HR MAX TEMP:  72;

PASCAGOULA     CLEAR     64  62  93 CALM      30.02R
6HR MIN TEMP:  62; 6HR MAX TEMP:  64;

GULFPORT       PTCLDY    73  61  65 N5        30.02R
6HR MIN TEMP:  71; 6HR MAX TEMP:  74;

$$



USA.gov is the U.S. government's official web portal to all federal, state and local government web resources and services.